Weather Roundup
Issued by NWS

Home | Current Version | Previous Version | Graphics & Text | Print | Product List | Glossary Off
Versions: 1 2 3 4 5 6 7 8 9 10 11 12 13 14 15 16 17 18 19 20 21 22 23 24 25 26 27 28 29 30 31 32 33 34 35 36 37 38 39 40 41 42 43 44 45 46 47 48 49 50

000
NZUS93 KARX 300710
HRRWXR

CURRENT HOURLY OBSERVATIONS ACROSS
MUCH OF THE UPPER MISSISSIPPI VALLEY
NATIONAL WEATHER SERVICE LA CROSSE WI
200 AM CDT TUE JUN 30 2015


...SOUTHEAST MINNESOTA...


CITY           SKY/WX    TMP DP  RH WIND       PRES   REMARKS
ROCHESTER      CLEAR     59  57  93 W3        29.86S FOG
ROCHESTER/MAYO FAIR      61  61  99 CALM      29.85S
WINONA         CLOUDY    59  59 100 NW5       29.83S FOG
AUSTIN         CLEAR     61  57  88 CALM      29.84F
ALBERT LEA     CLEAR     63  61  94 NW3       29.85S
DODGE CENTER   PTCLDY    61  57  88 W5        29.85S
PRESTON        CLEAR     59  56  89 W6        29.86S
OWATONNA       CLEAR     61  57  88 CALM      29.85S
FARIBAULT      PTCLDY    59  57  94 CALM      29.85S
$$

...ELSEWHERE IN MINNESOTA...


CITY           SKY/WX    TMP DP  RH WIND       PRES   REMARKS
MINNEAPOLIS    PTCLDY    64  62  93 NE3       29.85R
INTNL FALLS    MOCLDY    57  51  80 E6        29.95R
DULUTH         MOCLDY    62  57  83 N8        29.88R
RED WING       PTCLDY    57  57 100 CALM      29.83S FOG
REDWOOD FALLS  CLEAR     66  64  93 NW7       29.88S
MANKATO        CLEAR     66  63  88 NW7       29.85S
WORTHINGTON    MOCLDY    63  57  82 N7        29.93S
FAIRMONT       CLEAR     66  59  77 NW9       29.88S
$$

...SOUTHWEST WISCONSIN...


CITY           SKY/WX    TMP DP  RH WIND       PRES   REMARKS
LA CROSSE      CLEAR     60  59  96 N6        29.82S FOG
PRAIRIE DU CHI CLEAR     60  58  96 CALM      29.82S FOG
BOSCOBEL       FOG       59  58  96 CALM      29.81F VSB 1/4
LONE ROCK      FOG       58  56  93 CALM      29.82S VSB 3/4
PLATTEVILLE    CLEAR     60  59  98 CALM      29.81F
FORT MC COY    FOG       54  53  97 CALM      29.83S VSB 1/4
CAMP DOUGLAS   FOG       53  53 100 W5        29.80F VSB 1/4
VIROQUA        FAIR      59  59 100 W5        29.82F
WIS DELLS      FOG       57  55  95 CALM      29.81S VSB 3/4
$$

...ELSEWHERE IN WISCONSIN...


CITY           SKY/WX    TMP DP  RH WIND       PRES   REMARKS
MILWAUKEE      CLOUDY    63  61  93 SW3       29.77S FOG
MADISON        PTCLDY    61  58  90 CALM      29.79F
GREEN BAY      CLOUDY    63  61  93 W6        29.76S FOG
EAU CLAIRE     CLEAR     57  56  96 CALM      29.83S FOG
BLACK RVR FLS  FOG       52  52 100 CALM      29.82R VSB 1
MEDFORD        MOCLDY    58  58  99 N6        29.82F FOG
WAUSAU         MOCLDY    60  58  92 NW8       29.80R FOG
WIS RAPIDS     PTCLDY    57  55  93 W5        29.81S
MARSHFIELD     MOCLDY    59  55  87 NW6       29.81F FOG
RICE LAKE      FOG       57  56  96 CALM      29.86S VSB 3/4
$$

...NORTHEAST IOWA...


CITY           SKY/WX    TMP DP  RH WIND       PRES   REMARKS
DECORAH          N/A    N/A N/A N/A MISG        N/A
MASON CITY     CLEAR     62  58  86 W5        29.86F
CHARLES CITY   CLEAR     61  61 100 SW6       29.85S
OELWEIN          N/A     61  61 100 W5        29.84S
$$

...ELSEWHERE IN IOWA...


CITY           SKY/WX    TMP DP  RH WIND       PRES   REMARKS
DES MOINES     CLOUDY    69  62  78 W6        29.86S
IOWA CITY      CLEAR     63  61  93 W3        29.84S
FORT DODGE     CLEAR     66  61  82 CALM      29.88S
$$

...NORTHERN ILLINOIS...


CITY           SKY/WX    TMP DP  RH WIND       PRES   REMARKS
CHICAGO-OHARE  CLOUDY    65  63  93 S3        29.77S
CHICAGO-MIDWAY MOCLDY    68  65  90 N5        29.77F FOG
MOLINE         CLOUDY    66  64  93 W3        29.81S
ROCKFORD       CLOUDY    63  60  90 NW9       29.81S
PEORIA         MOCLDY    67  63  87 SW5       29.82R
$$

NOTE: "FAIR" INDICATES FEW OR NO CLOUDS BELOW 12,000 FEET WITH NO
SIGNIFICANT WEATHER AND/OR OBSTRUCTIONS TO VISIBILITY. WIND
SPEEDS ARE IN MILES-PER-HOUR.



USA.gov is the U.S. government's official web portal to all federal, state and local government web resources and services.